Regional Weather Roundup
Issued by NWS Cleveland, OH

Home | Current Version | Previous Version | Text Only | Print | Product List | Glossary Off
Versions: 1 2 3 4 5 6 7 8 9 10 11 12 13 14 15 16 17 18 19 20 21 22 23 24 25 26 27 28 29 30 31 32 33 34 35 36 37 38 39 40 41 42 43 44 45 46 47 48 49 50

005
ASUS41 KCLE 281500
RWRCLE
OHIO REGIONAL WEATHER ROUNDUP
NATIONAL WEATHER SERVICE WILMINGTON, OH
1100 AM EDT TUE MAR 28 2017

NOTE: "FAIR" INDICATES FEW OR NO CLOUDS BELOW 12,000 FEET WITH NO
SIGNIFICANT WEATHER AND/OR OBSTRUCTIONS TO VISIBILITY.

OHZ001>008-015>018-024>027-034-035-043-044-281600-
   NORTHWEST OHIO

CITY           SKY/WX    TMP DP  RH WIND       PRES   REMARKS
DEFIANCE       CLOUDY    47  43  86 NE12      30.03R
FINDLAY        CLOUDY    46  40  79 NE13      30.01R
TOLEDO EXPRESS CLOUDY    45  42  89 N13       30.03R
TOLEDO EXEC    CLOUDY    46  41  82 N12       30.04R
LIMA           CLOUDY    47  45  93 N13       30.01R
$$

OHZ009>014-019>023-028>033-038-089-281600-
   NORTHEAST OHIO

CITY           SKY/WX    TMP DP  RH WIND       PRES   REMARKS
CLE-HOPKINS    CLOUDY    43  38  82 N13       30.01R
CLE-LAKEFRONT  CLOUDY    40  38  93 N7        29.99R
CUY CO. ARPT   NOT AVBL
LORAIN-ELYRIA  CLOUDY    40  37  89 N12       30.00R
ASHTABULA      CLOUDY    47  46  97 N7        29.96R FOG
AKRON-CANTON   CLOUDY    51  48  89 N14       29.93R FOG
WOOSTER        NOT AVBL
MANSFIELD      FOG       46  46 100 N9        29.96R VSB 3/4
YOUNGSTOWN     LGT RAIN  50  48  93 N7        29.93R FOG
$$

OHZ042-051>053-060>062-070>072-077>081-281600-
  SOUTHWEST OHIO

CITY           SKY/WX    TMP DP  RH WIND       PRES   REMARKS
CINC-COVINGTON CLOUDY    56  54  93 N10       29.97R
CINC-LUNKEN    CLOUDY    57  54  89 N12       29.97R
HAMILTON       CLOUDY    57  54  89 N8        29.99R
DAYTON         NOT AVBL
WRIGHT-PAT AFB CLOUDY    55  55 100 N8        29.96R
DAYTON GENERAL CLOUDY    56  53  90 N9        29.96R
WILMINGTON     CLOUDY    54  54 100 N13       29.95R FOG
$$

OHZ036-037-039>041-045>050-054>059-063>069-073>076-082>088-281600-
  CENTRAL AND SOUTHEAST OHIO

CITY           SKY/WX    TMP DP  RH WIND       PRES   REMARKS
COLUMBUS       CLOUDY    55  52  89 N9        29.94R FOG
OSU AIRPORT    CLOUDY    53  51  93 N12       29.94R
BOLTON FIELD   CLOUDY    54  52  94 N13       29.95R
RICKENBACK AFB NOT AVBL
NEWARK         CLOUDY    56  51  84 N10       29.92R
MARION         CLOUDY    47  45  93 N14       29.98R FOG
LANCASTER      CLOUDY    58  55  90 N8        29.93R
ZANESVILLE     CLOUDY    56  52  86 NW10      29.92R
NEW PHILLY     CLOUDY    54  53  97 N9        29.92R FOG
$$




USA.gov is the U.S. government's official web portal to all federal, state and local government web resources and services.